,,Stat6,,Stat2,,Stat8,,Stat9,,Stat10,,Wind1,,Wind1,
time,status,PA1M_AVG,status,PR1M_SUM,status,RH1M_AVG,status,SR1M_AVG,status,TA1M_AVG,status,W1dAve1m,status,W1sAve1m,
2007-03-01, 00:00:00,VALID,917.31,VALID,0,VALID,100,VALID,0,VALID,20.4133,VALID,6,VALID,0.707485,
2007-03-01, 00:01:00,VALID,917.302,VALID,0,VALID,100,VALID,0,VALID,20.3909,VALID,2,VALID,0.725204,
2007-03-01, 00:02:00,VALID,917.274,VALID,0,VALID,100,VALID,-0.0339617,VALID,20.3579,VALID,359,VALID,0.367733,
2007-03-01, 00:03:00,VALID,917.243,VALID,0,VALID,100,VALID,-0.0169808,VALID,20.3484,VALID,359,VALID,0.301758,
2007-03-01, 00:04:00,VALID,917.211,VALID,0,VALID,100,VALID,0,VALID,20.3352,VALID,359,VALID,0.0519622,
2007-03-01, 00:05:00,VALID,917.193,VALID,0,VALID,100,VALID,-0.0339617,VALID,20.3387,VALID,22,VALID,0.659108,
2007-03-01, 00:06:00,VALID,917.191,VALID,0,VALID,100,VALID,0,VALID,20.319,VALID,28,VALID,0.583333,
2007-03-01, 00:07:00,VALID,917.187,VALID,0,VALID,100,VALID,0.0339617,VALID,20.3192,VALID,35,VALID,0.713796,
2007-03-01, 00:08:00,VALID,917.168,VALID,0,VALID,100,VALID,0,VALID,20.3225,VALID,36,VALID,0.328125,
2007-03-01, 00:09:00,VALID,917.158,VALID,0,VALID,100,VALID,0,VALID,20.3355,VALID,8,VALID,0.410792,
2007-03-01, 00:10:00,VALID,917.154,VALID,0,VALID,100,VALID,-0.0169808,VALID,20.3227,VALID,1,VALID,0.291853,
2007-03-01, 00:11:00,VALID,917.142,VALID,0,VALID,100,VALID,0,VALID,20.293,VALID,1,VALID,0.706032,
2007-03-01, 00:12:00,VALID,917.143,VALID,0,VALID,100,VALID,0,VALID,20.2806,VALID,2,VALID,0.246528,
2007-03-01, 00:13:00,VALID,917.14,VALID,0,VALID,100,VALID,-0.0679233,VALID,20.2876,VALID,4,VALID,0.392708,
2007-03-01, 00:14:00,VALID,917.139,VALID,0,VALID,100,VALID,-0.118866,VALID,20.2883,VALID,4,VALID,0.226372,
2007-03-01, 00:15:00,VALID,917.124,VALID,0,VALID,100,VALID,-0.135847,VALID,20.2948,VALID,4,VALID,0.0461483,
2007-03-01, 00:16:00,VALID,917.112,VALID,0,VALID,100,VALID,-0.118866,VALID,20.318,VALID,4,VALID,0.0478766,
2007-03-01, 00:17:00,VALID,917.115,VALID,0,VALID,100,VALID,-0.101885,VALID,20.3208,VALID,15,VALID,0.474432,
2007-03-01, 00:18:00,VALID,917.098,VALID,0,VALID,100,VALID,-0.101885,VALID,20.3078,VALID,356,VALID,0.517401,
2007-03-01, 00:19:00,VALID,917.093,VALID,0,VALID,100,VALID,-0.118866,VALID,20.2948,VALID,16,VALID,0.399581,
2007-03-01, 00:20:00,VALID,917.1,VALID,0,VALID,100,VALID,-0.135847,VALID,20.3148,VALID,16,VALID,0.257267,
2007-03-01, 00:21:00,VALID,917.094,VALID,0,VALID,100,VALID,-0.118866,VALID,20.3405,VALID,16,VALID,0.449128,
2007-03-01, 00:22:00,VALID,917.073,VALID,0,VALID,100,VALID,-0.101885,VALID,20.3532,VALID,25,VALID,0.625363,
2007-03-01, 00:23:00,VALID,917.076,VALID,0,VALID,100,VALID,-0.101885,VALID,20.3632,VALID,28,VALID,0.76456,
2007-03-01, 00:24:00,VALID,917.074,VALID,0,VALID,100,VALID,-0.135847,VALID,20.3627,VALID,33,VALID,0.645461,
2007-03-01, 00:25:00,VALID,917.063,VALID,0,VALID,100,VALID,-0.101885,VALID,20.3922,VALID,35,VALID,0.492365,
2007-03-01, 00:26:00,VALID,917.079,VALID,0,VALID,100,VALID,-0.118866,VALID,20.4049,VALID,33,VALID,0.47962,
2007-03-01, 00:27:00,VALID,917.088,VALID,0,VALID,100,VALID,-0.118866,VALID,20.4181,VALID,32,VALID,0.508384,
2007-03-01, 00:28:00,VALID,917.091,VALID,0,VALID,100,VALID,-0.0679233,VALID,20.4238,VALID,21,VALID,1.0564,
2007-03-01, 00:29:00,VALID,917.1,VALID,0,VALID,100,VALID,-0.0169808,VALID,20.3774,VALID,26,VALID,1.01254,
2007-03-01, 00:30:00,VALID,917.102,VALID,0,VALID,100,VALID,0,VALID,20.3811,VALID,42,VALID,0.775484,
2007-03-01, 00:31:00,VALID,917.096,VALID,0,VALID,100,VALID,-0.0169808,VALID,20.3841,VALID,16,VALID,0.586111,
2007-03-01, 00:32:00,VALID,917.101,VALID,0,VALID,100,VALID,0.0169808,VALID,20.3744,VALID,351,VALID,0.461496,
2007-03-01, 00:33:00,VALID,917.092,VALID,0,VALID,100,VALID,-0.0169808,VALID,20.329,VALID,12,VALID,1.08426,
2007-03-01, 00:34:00,VALID,917.094,VALID,0,VALID,100,VALID,0.0169808,VALID,20.29,VALID,26,VALID,0.977515,
2007-03-01, 00:35:00,VALID,917.089,VALID,0,VALID,100,VALID,-0.0509425,VALID,20.2835,VALID,323,VALID,0.682355,
2007-03-01, 00:36:00,VALID,917.073,VALID,0,VALID,100,VALID,0,VALID,20.2706,VALID,22,VALID,1.08185,
2007-03-01, 00:37:00,VALID,917.065,VALID,0,VALID,100,VALID,0,VALID,20.2868,VALID,38,VALID,0.69264,
2007-03-01, 00:38:00,VALID,917.055,VALID,0,VALID,100,VALID,0,VALID,20.3095,VALID,39,VALID,0.479469,
2007-03-01, 00:39:00,VALID,917.038,VALID,0,VALID,100,VALID,-0.0169808,VALID,20.3355,VALID,27,VALID,0.62157,
2007-03-01, 00:40:00,VALID,917.023,VALID,0,VALID,100,VALID,-0.0339617,VALID,20.3225,VALID,17,VALID,0.96875,
2007-03-01, 00:41:00,VALID,917.008,VALID,0,VALID,100,VALID,0,VALID,20.2771,VALID,7,VALID,1.42045,
2007-03-01, 00:42:00,VALID,917.004,VALID,0,VALID,100,VALID,0,VALID,20.2473,VALID,360,VALID,1.03374,
2007-03-01, 00:43:00,VALID,916.99,VALID,0,VALID,100,VALID,0,VALID,20.2414,VALID,18,VALID,0.769903,
2007-03-01, 00:44:00,VALID,916.962,VALID,0,VALID,100,VALID,0.0339617,VALID,20.2376,VALID,26,VALID,1.15216,
2007-03-01, 00:45:00,VALID,916.953,VALID,0,VALID,100,VALID,-0.0169808,VALID,20.2349,VALID,12,VALID,0.681021,
2007-03-01, 00:46:00,VALID,916.946,VALID,0,VALID,100,VALID,-0.0169808,VALID,20.2541,VALID,7,VALID,0.0979056,
2007-03-01, 00:47:00,VALID,916.945,VALID,0,VALID,100,VALID,-0.0169808,VALID,20.2576,VALID,7,VALID,0.162348,
2007-03-01, 00:48:00,VALID,916.927,VALID,0,VALID,100,VALID,0.0169808,VALID,20.28,VALID,7,VALID,0,
2007-03-01, 00:49:00,VALID,916.922,VALID,0,VALID,100,VALID,0,VALID,20.2895,VALID,9,VALID,0.182855,
2007-03-01, 00:50:00,VALID,916.926,VALID,0,VALID,100,VALID,0,VALID,20.303,VALID,9,VALID,0.0875,
2007-03-01, 00:51:00,VALID,916.93,VALID,0,VALID,100,VALID,-0.0169808,VALID,20.2998,VALID,9,VALID,0.00762195,
2007-03-01, 00:52:00,VALID,916.919,VALID,0,VALID,100,VALID,0,VALID,20.293,VALID,9,VALID,0.117365,
2007-03-01, 00:53:00,VALID,916.918,VALID,0,VALID,100,VALID,0,VALID,20.3063,VALID,10,VALID,0.370206,
2007-03-01, 00:54:00,VALID,916.922,VALID,0,VALID,100,VALID,-0.0169808,VALID,20.329,VALID,16,VALID,0.575581,
2007-03-01, 00:55:00,VALID,916.9,VALID,0,VALID,100,VALID,-0.0169808,VALID,20.3517,VALID,35,VALID,0.954427,
2007-03-01, 00:56:00,VALID,916.885,VALID,0,VALID,100,VALID,-0.0169808,VALID,20.3744,VALID,42,VALID,1.05344,
2007-03-01, 00:57:00,VALID,916.859,VALID,0,VALID,100,VALID,0,VALID,20.3939,VALID,41,VALID,1.0625,
2007-03-01, 00:58:00,VALID,916.849,VALID,0,VALID,100,VALID,0,VALID,20.4131,VALID,46,VALID,1.08521,
2007-03-01, 00:59:00,VALID,916.829,VALID,0,VALID,100,VALID,-0.0169808,VALID,20.4171,VALID,42,VALID,1.20363,
2007-03-01, 01:00:00,VALID,916.828,VALID,0,VALID,100,VALID,0,VALID,20.4268,VALID,46,VALID,1.03365,
2007-03-01, 01:01:00,VALID,916.831,VALID,0,VALID,100,VALID,-0.0169808,VALID,20.4166,VALID,47,VALID,0.802782,
2007-03-01, 01:02:00,VALID,916.833,VALID,0,VALID,100,VALID,-0.0339617,VALID,20.4393,VALID,40,VALID,0.798958,
2007-03-01, 01:03:00,VALID,916.841,VALID,0,VALID,100,VALID,-0.0169808,VALID,20.4453,VALID,27,VALID,0.815341,
2007-03-01, 01:04:00,VALID,916.848,VALID,0,VALID,100,VALID,0,VALID,20.3874,VALID,12,VALID,0.844122,
2007-03-01, 01:05:00,VALID,916.848,VALID,0,VALID,100,VALID,-0.0339617,VALID,20.3584,VALID,28,VALID,0.991806,
2007-03-01, 01:06:00,VALID,916.856,VALID,0,VALID,100,VALID,0,VALID,20.3352,VALID,26,VALID,0.648438,
2007-03-01, 01:07:00,VALID,916.865,VALID,0,VALID,100,VALID,0,VALID,20.3484,VALID,34,VALID,0.509859,
2007-03-01, 01:08:00,VALID,916.854,VALID,0,VALID,100,VALID,0,VALID,20.3387,VALID,25,VALID,0.894717,
2007-03-01, 01:09:00,VALID,916.844,VALID,0,VALID,100,VALID,0,VALID,20.296,VALID,14,VALID,0.848214,
2007-03-01, 01:10:00,VALID,916.827,VALID,0,VALID,100,VALID,-0.0509425,VALID,20.2706,VALID,23,VALID,0.858487,
2007-03-01, 01:11:00,VALID,916.822,VALID,0,VALID,100,VALID,-0.0339617,VALID,20.2708,VALID,358,VALID,0.587891,
2007-03-01, 01:12:00,VALID,916.803,VALID,0,VALID,100,VALID,0,VALID,20.2611,VALID,32,VALID,1.0794,
2007-03-01, 01:13:00,VALID,916.797,VALID,0,VALID,100,VALID,-0.0509425,VALID,20.2581,VALID,36,VALID,0.451265,
2007-03-01, 01:14:00,VALID,916.78,VALID,0,VALID,100,VALID,-0.101885,VALID,20.2619,VALID,17,VALID,0.126243,
2007-03-01, 01:15:00,VALID,916.769,VALID,0,VALID,100,VALID,-0.101885,VALID,20.2748,VALID,9,VALID,0.0496652,
2007-03-01, 01:16:00,VALID,916.747,VALID,0,VALID,100,VALID,-0.0679233,VALID,20.2619,VALID,9,VALID,0,
2007-03-01, 01:17:00,VALID,916.737,VALID,0,VALID,100,VALID,-0.101885,VALID,20.2591,VALID,9,VALID,0.0481179,
2007-03-01, 01:18:00,VALID,916.733,VALID,0,VALID,100,VALID,-0.0849042,VALID,20.2456,VALID,17,VALID,0.311047,
2007-03-01, 01:19:00,VALID,916.727,VALID,0,VALID,100,VALID,-0.101885,VALID,20.2389,VALID,17,VALID,0.000332447,
2007-03-01, 01:20:00,VALID,916.731,VALID,0,VALID,100,VALID,-0.101885,VALID,20.2556,VALID,18,VALID,0.334961,
2007-03-01, 01:21:00,VALID,916.733,VALID,0,VALID,100,VALID,-0.0849042,VALID,20.2589,VALID,20,VALID,0.719494,
2007-03-01, 01:22:00,VALID,916.73,VALID,0,VALID,100,VALID,-0.0509425,VALID,20.2753,VALID,23,VALID,0.759588,
2007-03-01, 01:23:00,VALID,916.732,VALID,0,VALID,100,VALID,-0.0169808,VALID,20.2905,VALID,33,VALID,0.768601,
2007-03-01, 01:24:00,VALID,916.733,VALID,0,VALID,100,VALID,-0.0679233,VALID,20.3327,VALID,40,VALID,0.679501,
2007-03-01, 01:25:00,VALID,916.736,VALID,0,VALID,100,VALID,-0.0509425,VALID,20.3462,VALID,33,VALID,1.14288,
2007-03-01, 01:26:00,VALID,916.738,VALID,0,VALID,100,VALID,-0.0679233,VALID,20.3597,VALID,42,VALID,1.21429,
2007-03-01, 01:27:00,VALID,916.735,VALID,0,VALID,100,VALID,-0.0849042,VALID,20.3759,VALID,38,VALID,0.886083,
2007-03-01, 01:28:00,VALID,916.742,VALID,0,VALID,100,VALID,-0.0679233,VALID,20.3822,VALID,39,VALID,0.908249,
2007-03-01, 01:29:00,VALID,916.734,VALID,0,VALID,100,VALID,-0.0849042,VALID,20.3792,VALID,45,VALID,0.791788,
2007-03-01, 01:30:00,VALID,916.74,VALID,0,VALID,100,VALID,-0.0339617,VALID,20.3622,VALID,42,VALID,0.910689,
2007-03-01, 01:31:00,VALID,916.738,VALID,0,VALID,100,VALID,-0.0849042,VALID,20.3754,VALID,42,VALID,0.782366,
2007-03-01, 01:32:00,VALID,916.729,VALID,0,VALID,100,VALID,-0.101885,VALID,20.3792,VALID,42,VALID,0.542411,
2007-03-01, 01:33:00,VALID,916.711,VALID,0,VALID,100,VALID,-0.101885,VALID,20.3762,VALID,45,VALID,0.781808,
2007-03-01, 01:34:00,VALID,916.703,VALID,0,VALID,100,VALID,-0.101885,VALID,20.3689,VALID,35,VALID,1.01972,
2007-03-01, 01:35:00,VALID,916.682,VALID,0,VALID,100,VALID,-0.0849042,VALID,20.356,VALID,36,VALID,0.93125,
2007-03-01, 01:36:00,VALID,916.655,VALID,0,VALID,100,VALID,-0.0679233,VALID,20.3627,VALID,31,VALID,0.646205,
2007-03-01, 01:37:00,VALID,916.637,VALID,0,VALID,100,VALID,-0.101885,VALID,20.3595,VALID,38,VALID,0.507254,
2007-03-01, 01:38:00,VALID,916.619,VALID,0,VALID,100,VALID,-0.0849042,VALID,20.3562,VALID,31,VALID,0.662388,
2007-03-01, 01:39:00,VALID,916.574,VALID,0.2,VALID,100,VALID,-0.0169808,VALID,20.3332,VALID,30,VALID,0.845703,
2007-03-01, 01:40:00,VALID,916.556,VALID,0,VALID,100,VALID,-0.0339617,VALID,20.3362,VALID,42,VALID,0.836301,
2007-03-01, 01:41:00,VALID,916.546,VALID,0,VALID,100,VALID,-0.0849042,VALID,20.3467,VALID,46,VALID,0.670058,
2007-03-01, 01:42:00,VALID,916.524,VALID,0,VALID,100,VALID,-0.0849042,VALID,20.3013,VALID,330,VALID,0.814596,
2007-03-01, 01:43:00,VALID,916.505,VALID,0,VALID,100,VALID,-0.0679233,VALID,20.2229,VALID,11,VALID,0.872692,
2007-03-01, 01:44:00,VALID,916.504,VALID,0,VALID,100,VALID,-0.0679233,VALID,20.2359,VALID,42,VALID,0.920015,
2007-03-01, 01:45:00,VALID,916.494,VALID,0,VALID,100,VALID,-0.0849042,VALID,20.2519,VALID,38,VALID,1.01217,
2007-03-01, 01:46:00,VALID,916.464,VALID,0,VALID,100,VALID,-0.0849042,VALID,20.2659,VALID,34,VALID,0.990625,
2007-03-01, 01:47:00,VALID,916.457,VALID,0,VALID,100,VALID,-0.0849042,VALID,20.2524,VALID,32,VALID,1.06136,
2007-03-01, 01:48:00,VALID,916.431,VALID,0,VALID,100,VALID,-0.101885,VALID,20.2589,VALID,35,VALID,0.941667,
2007-03-01, 01:49:00,VALID,916.422,VALID,0,VALID,100,VALID,-0.0679233,VALID,20.2486,VALID,40,VALID,0.832031,
2007-03-01, 01:50:00,VALID,916.404,VALID,0,VALID,100,VALID,-0.118866,VALID,20.2689,VALID,38,VALID,1.09575,
2007-03-01, 01:51:00,VALID,916.398,VALID,0,VALID,100,VALID,-0.101885,VALID,20.2461,VALID,17,VALID,0.98402,
2007-03-01, 01:52:00,VALID,916.385,VALID,0,VALID,100,VALID,-0.118866,VALID,20.2072,VALID,20,VALID,1.01326,
2007-03-01, 01:53:00,VALID,916.367,VALID,0,VALID,100,VALID,-0.101885,VALID,20.2005,VALID,30,VALID,0.959413,
2007-03-01, 01:54:00,VALID,916.354,VALID,0.2,VALID,100,VALID,-0.101885,VALID,20.2072,VALID,9,VALID,1.17816,
2007-03-01, 01:55:00,VALID,916.328,VALID,0,VALID,100,VALID,-0.101885,VALID,20.1845,VALID,34,VALID,1.34432,
2007-03-01, 01:56:00,VALID,916.299,VALID,0,VALID,100,VALID,-0.101885,VALID,20.1847,VALID,31,VALID,0.875727,
2007-03-01, 01:57:00,VALID,916.288,VALID,0,VALID,100,VALID,-0.101885,VALID,20.1583,VALID,25,VALID,1.47294,
2007-03-01, 01:58:00,VALID,916.276,VALID,0,VALID,100,VALID,-0.0679233,VALID,20.1351,VALID,37,VALID,2.12155,
2007-03-01, 01:59:00,VALID,916.253,VALID,0,VALID,100,VALID,0.0169808,VALID,20.1148,VALID,37,VALID,1.26582,
2007-03-01, 02:00:00,VALID,916.244,VALID,0,VALID,100,VALID,0,VALID,20.0986,VALID,38,VALID,1.7965,
2007-03-01, 02:01:00,VALID,916.225,VALID,0,VALID,100,VALID,-0.0169808,VALID,20.0659,VALID,24,VALID,1.04781,
2007-03-01, 02:02:00,VALID,916.198,VALID,0,VALID,100,VALID,-0.0169808,VALID,20.027,VALID,31,VALID,1.64198,
2007-03-01, 02:03:00,VALID,916.178,VALID,0,VALID,100,VALID,0.0169808,VALID,19.998,VALID,33,VALID,1.56326,
2007-03-01, 02:04:00,VALID,916.18,VALID,0,VALID,100,VALID,0,VALID,20.0008,VALID,31,VALID,1.35213,
2007-03-01, 02:05:00,VALID,916.175,VALID,0,VALID,100,VALID,-0.0169808,VALID,19.998,VALID,30,VALID,1.55124,
2007-03-01, 02:06:00,VALID,916.134,VALID,0,VALID,100,VALID,-0.0169808,VALID,19.9623,VALID,332,VALID,1.33049,
2007-03-01, 02:07:00,VALID,916.148,VALID,0,VALID,100,VALID,0.0169808,VALID,19.9039,VALID,26,VALID,1.27131,
2007-03-01, 02:08:00,VALID,916.117,VALID,0,VALID,100,VALID,0.0169808,VALID,19.9104,VALID,40,VALID,1.58339,
2007-03-01, 02:09:00,VALID,916.096,VALID,0,VALID,100,VALID,0,VALID,19.9197,VALID,34,VALID,1.87028,
2007-03-01, 02:10:00,VALID,916.089,VALID,0,VALID,100,VALID,0,VALID,19.9234,VALID,25,VALID,1.68322,
2007-03-01, 02:11:00,VALID,916.081,VALID,0,VALID,100,VALID,-0.0169808,VALID,19.9429,VALID,38,VALID,1.37609,
2007-03-01, 02:12:00,VALID,916.059,VALID,0,VALID,100,VALID,0,VALID,19.9167,VALID,30,VALID,1.40644,
2007-03-01, 02:13:00,VALID,916.048,VALID,0,VALID,100,VALID,0.0169808,VALID,19.8163,VALID,39,VALID,1.863,
2007-03-01, 02:14:00,VALID,916.041,VALID,0,VALID,100,VALID,0,VALID,19.7639,VALID,34,VALID,1.90252,
2007-03-01, 02:15:00,VALID,916.032,VALID,0,VALID,100,VALID,0,VALID,19.7123,VALID,15,VALID,1.90272,
2007-03-01, 02:16:00,VALID,915.992,VALID,0,VALID,100,VALID,-0.0169808,VALID,19.6217,VALID,36,VALID,2.50223,
2007-03-01, 02:17:00,VALID,916.002,VALID,0,VALID,100,VALID,-0.0339617,VALID,19.6182,VALID,41,VALID,2.18266,
2007-03-01, 02:18:00,VALID,916.016,VALID,0,VALID,100,VALID,-0.0339617,VALID,19.5958,VALID,42,VALID,1.71456,
2007-03-01, 02:19:00,VALID,916.017,VALID,0,VALID,100,VALID,-0.0509425,VALID,19.5636,VALID,35,VALID,2.07199,
2007-03-01, 02:20:01,VALID,916.036,VALID,0,VALID,100,VALID,0,VALID,19.5211,VALID,16,VALID,1.87736,
2007-03-01, 02:21:00,VALID,916.043,VALID,0,VALID,100,VALID,-0.0169808,VALID,19.4595,VALID,30,VALID,1.96804,
2007-03-01, 02:22:00,VALID,916.059,VALID,0,VALID,100,VALID,-0.0339617,VALID,19.4468,VALID,22,VALID,1.33194,
2007-03-01, 02:23:00,VALID,916.064,VALID,0,VALID,100,VALID,0,VALID,19.3849,VALID,342,VALID,1.18184,
2007-03-01, 02:24:00,VALID,916.083,VALID,0,VALID,100,VALID,-0.0339617,VALID,19.3752,VALID,32,VALID,1.65547,
2007-03-01, 02:25:01,VALID,916.102,VALID,0,VALID,100,VALID,-0.0339617,VALID,19.3944,VALID,11,VALID,1.28367,
2007-03-01, 02:26:00,VALID,916.104,VALID,0.2,VALID,100,VALID,-0.0169808,VALID,19.3914,VALID,21,VALID,1.09948,
2007-03-01, 02:27:00,VALID,916.1,VALID,0,VALID,100,VALID,-0.0169808,VALID,19.3819,VALID,24,VALID,0.388626,
2007-03-01, 02:28:01,VALID,916.114,VALID,0,VALID,100,VALID,-0.0169808,VALID,19.3752,VALID,15,VALID,1.56268,
2007-03-01, 02:29:00,VALID,916.113,VALID,0,VALID,100,VALID,-0.0169808,VALID,19.3557,VALID,38,VALID,1.83445,
2007-03-01, 02:30:01,VALID,916.115,VALID,0,VALID,100,VALID,-0.0679233,VALID,19.3395,VALID,31,VALID,1.56268,
2007-03-01, 02:31:00,VALID,916.125,VALID,0,VALID,100,VALID,-0.0339617,VALID,19.3198,VALID,24,VALID,1.61417,
2007-03-01, 02:32:00,VALID,916.111,VALID,0,VALID,100,VALID,0,VALID,19.3198,VALID,29,VALID,1.13263,
2007-03-01, 02:33:00,VALID,916.112,VALID,0,VALID,100,VALID,-0.0339617,VALID,19.3033,VALID,27,VALID,1.93601,
2007-03-01, 02:34:00,VALID,916.126,VALID,0,VALID,100,VALID,-0.0169808,VALID,19.2714,VALID,15,VALID,1.53398,
2007-03-01, 02:35:01,VALID,916.135,VALID,0,VALID,100,VALID,-0.0169808,VALID,19.2195,VALID,334,VALID,0.789249,
2007-03-01, 02:36:00,VALID,916.127,VALID,0,VALID,100,VALID,-0.0169808,VALID,19.1805,VALID,15,VALID,1.34728,
2007-03-01, 02:37:00,VALID,916.135,VALID,0,VALID,100,VALID,0,VALID,19.1576,VALID,17,VALID,1.24237,
2007-03-01, 02:38:00,VALID,916.13,VALID,0,VALID,100,VALID,0,VALID,19.1182,VALID,6,VALID,0.928757,
2007-03-01, 02:39:01,VALID,916.129,VALID,0,VALID,100,VALID,0.0339617,VALID,19.1407,VALID,358,VALID,0.875174,
2007-03-01, 02:40:01,VALID,916.12,VALID,0,VALID,100,VALID,0,VALID,19.1474,VALID,23,VALID,1.83967,
2007-03-01, 02:41:00,VALID,916.134,VALID,0,VALID,100,VALID,0.0169808,VALID,19.1312,VALID,6,VALID,0.927871,
2007-03-01, 02:42:00,VALID,916.122,VALID,0,VALID,100,VALID,0.0339617,VALID,19.1414,VALID,33,VALID,1.23056,
2007-03-01, 02:43:00,VALID,916.132,VALID,0,VALID,100,VALID,0.0169808,VALID,19.1576,VALID,22,VALID,0.974702,
2007-03-01, 02:44:01,VALID,916.12,VALID,0,VALID,100,VALID,0.0169808,VALID,19.1379,VALID,8,VALID,1.19822,
2007-03-01, 02:45:01,VALID,916.1,VALID,0,VALID,100,VALID,0.0339617,VALID,19.0952,VALID,10,VALID,1.7761,
2007-03-01, 02:46:01,VALID,916.091,VALID,0,VALID,100,VALID,0,VALID,19.0832,VALID,29,VALID,2.05659,
2007-03-01, 02:47:01,VALID,916.081,VALID,0,VALID,100,VALID,0,VALID,19.0862,VALID,24,VALID,2.01544,
2007-03-01, 02:48:00,VALID,916.082,VALID,0,VALID,100,VALID,0.0509425,VALID,19.0498,VALID,21,VALID,1.85417,
2007-03-01, 02:49:00,VALID,916.077,VALID,0,VALID,100,VALID,0.0169808,VALID,19.0464,VALID,18,VALID,1.67949,
2007-03-01, 02:50:00,VALID,916.087,VALID,0,VALID,100,VALID,0.0169808,VALID,19.0598,VALID,358,VALID,1.06938,
2007-03-01, 02:51:00,VALID,916.099,VALID,0,VALID,100,VALID,0,VALID,19.0568,VALID,9,VALID,0.622869,
2007-03-01, 02:52:00,VALID,916.091,VALID,0,VALID,100,VALID,0,VALID,19.0568,VALID,349,VALID,0.878089,
2007-03-01, 02:53:00,VALID,916.083,VALID,0,VALID,100,VALID,0,VALID,19.0468,VALID,358,VALID,0.912972,
2007-03-01, 02:54:00,VALID,916.07,VALID,0,VALID,100,VALID,0,VALID,19.0633,VALID,16,VALID,0.65625,
2007-03-01, 02:55:01,VALID,916.061,VALID,0,VALID,100,VALID,0,VALID,19.0566,VALID,32,VALID,1.36204,
2007-03-01, 02:56:00,VALID,916.049,VALID,0,VALID,100,VALID,0.0339617,VALID,19.0855,VALID,22,VALID,1.12976,
2007-03-01, 02:57:01,VALID,916.034,VALID,0,VALID,100,VALID,0.0339617,VALID,19.1022,VALID,29,VALID,1.63336,
2007-03-01, 02:58:01,VALID,916.014,VALID,0,VALID,100,VALID,-0.0169808,VALID,19.099,VALID,30,VALID,1.83301,
2007-03-01, 02:59:01,VALID,915.998,VALID,0,VALID,100,VALID,0,VALID,19.102,VALID,30,VALID,1.81559,
2007-03-01, 03:00:01,VALID,915.98,VALID,0,VALID,100,VALID,0.0169808,VALID,19.0858,VALID,27,VALID,1.62373,
2007-03-01, 03:01:00,VALID,915.969,VALID,0,VALID,100,VALID,0,VALID,19.1025,VALID,1,VALID,1.40986,
2007-03-01, 03:02:00,VALID,915.968,VALID,0,VALID,100,VALID,0.0169808,VALID,19.082,VALID,336,VALID,0.712028,
2007-03-01, 03:03:01,VALID,915.944,VALID,0,VALID,100,VALID,0.0339617,VALID,19.0925,VALID,347,VALID,0.696615,
2007-03-01, 03:04:00,VALID,915.927,VALID,0,VALID,100,VALID,0.0169808,VALID,19.0763,VALID,11,VALID,1.60324,
2007-03-01, 03:05:01,VALID,915.907,VALID,0,VALID,100,VALID,-0.0169808,VALID,19.0663,VALID,6,VALID,1.34127,
2007-03-01, 03:06:01,VALID,915.896,VALID,0,VALID,100,VALID,0.0169808,VALID,19.0501,VALID,31,VALID,1.65547,
2007-03-01, 03:07:01,VALID,915.898,VALID,0,VALID,100,VALID,-0.0169808,VALID,19.0661,VALID,26,VALID,1.13887,
2007-03-01, 03:08:01,VALID,915.879,VALID,0,VALID,100,VALID,0,VALID,19.079,VALID,360,VALID,0.574306,
2007-03-01, 03:09:01,VALID,915.866,VALID,0,VALID,100,VALID,0,VALID,19.0955,VALID,18,VALID,0.885719,
2007-03-01, 03:10:01,VALID,915.848,VALID,0,VALID,100,VALID,0,VALID,19.1089,VALID,26,VALID,1.19779,
2007-03-01, 03:11:00,VALID,915.852,VALID,0,VALID,100,VALID,0.0169808,VALID,19.1082,VALID,40,VALID,1.14281,
2007-03-01, 03:12:00,VALID,915.834,VALID,0,VALID,100,VALID,0.0169808,VALID,19.0948,VALID,22,VALID,1.05711,
2007-03-01, 03:13:00,VALID,915.828,VALID,0,VALID,100,VALID,-0.0509425,VALID,19.1027,VALID,27,VALID,1.10728,
2007-03-01, 03:14:00,VALID,915.819,VALID,0,VALID,100,VALID,-0.118866,VALID,19.1064,VALID,28,VALID,0.942224,
2007-03-01, 03:15:00,VALID,915.794,VALID,0,VALID,100,VALID,-0.0849042,VALID,19.0932,VALID,29,VALID,1.07528,
2007-03-01, 03:16:00,VALID,915.805,VALID,0,VALID,100,VALID,-0.0849042,VALID,19.1099,VALID,17,VALID,0.77689,
2007-03-01, 03:17:00,VALID,915.8,VALID,0,VALID,100,VALID,-0.0679233,VALID,19.0967,VALID,358,VALID,0.208576,
2007-03-01, 03:18:00,VALID,915.781,VALID,0,VALID,100,VALID,-0.0679233,VALID,19.093,VALID,4,VALID,0.144618,
2007-03-01, 03:19:00,VALID,915.749,VALID,0.2,VALID,100,VALID,-0.101885,VALID,19.1127,VALID,25,VALID,0.363715,
2007-03-01, 03:20:00,VALID,915.733,VALID,0,VALID,100,VALID,-0.0849042,VALID,19.1289,VALID,14,VALID,0.492188,
2007-03-01, 03:21:00,VALID,915.722,VALID,0,VALID,100,VALID,-0.0509425,VALID,19.1546,VALID,19,VALID,0.671689,
2007-03-01, 03:22:00,VALID,915.711,VALID,0,VALID,100,VALID,-0.0339617,VALID,19.1578,VALID,28,VALID,0.841844,
2007-03-01, 03:23:00,VALID,915.696,VALID,0,VALID,100,VALID,-0.0339617,VALID,19.1676,VALID,16,VALID,0.535251,
2007-03-01, 03:24:00,VALID,915.699,VALID,0,VALID,100,VALID,-0.101885,VALID,19.1581,VALID,15,VALID,0.132813,
2007-03-01, 03:25:00,VALID,915.666,VALID,0,VALID,100,VALID,-0.0509425,VALID,19.1514,VALID,15,VALID,0.169085,
2007-03-01, 03:26:00,VALID,915.654,VALID,0,VALID,100,VALID,-0.101885,VALID,19.1616,VALID,15,VALID,0.322674,
2007-03-01, 03:27:00,VALID,915.634,VALID,0,VALID,100,VALID,-0.0849042,VALID,19.1873,VALID,15,VALID,0.236919,
2007-03-01, 03:28:00,VALID,915.636,VALID,0,VALID,100,VALID,-0.0509425,VALID,19.2162,VALID,15,VALID,0.266555,
2007-03-01, 03:29:00,VALID,915.629,VALID,0,VALID,100,VALID,0,VALID,19.2153,VALID,16,VALID,0.702753,
2007-03-01, 03:30:00,VALID,915.619,VALID,0,VALID,100,VALID,-0.0169808,VALID,19.2185,VALID,18,VALID,0.455171,
2007-03-01, 03:31:00,VALID,915.609,VALID,0,VALID,100,VALID,0.0169808,VALID,19.1995,VALID,17,VALID,0.212754,
2007-03-01, 03:32:00,VALID,915.591,VALID,0,VALID,100,VALID,0,VALID,19.1998,VALID,329,VALID,0.462652,
2007-03-01, 03:33:00,VALID,915.593,VALID,0,VALID,100,VALID,0,VALID,19.1763,VALID,343,VALID,0.761161,
2007-03-01, 03:34:00,VALID,915.594,VALID,0,VALID,100,VALID,0.0169808,VALID,19.1698,VALID,351,VALID,0.646307,
2007-03-01, 03:35:00,VALID,915.606,VALID,0,VALID,100,VALID,0.0169808,VALID,19.1831,VALID,11,VALID,0.185296,
2007-03-01, 03:36:00,VALID,915.594,VALID,0.2,VALID,100,VALID,0.0339617,VALID,19.1893,VALID,11,VALID,0.0012429,
2007-03-01, 03:37:00,VALID,915.594,VALID,0,VALID,100,VALID,0.0169808,VALID,19.1928,VALID,11,VALID,0.0452009,
2007-03-01, 03:38:00,VALID,915.593,VALID,0,VALID,100,VALID,0.0169808,VALID,19.1826,VALID,11,VALID,0.10992,
2007-03-01, 03:39:00,VALID,915.589,VALID,0,VALID,100,VALID,0.0169808,VALID,19.193,VALID,11,VALID,0.0336119,
2007-03-01, 03:40:00,VALID,915.584,VALID,0,VALID,100,VALID,0.0169808,VALID,19.2058,VALID,11,VALID,0.465701,
2007-03-01, 03:41:00,VALID,915.583,VALID,0,VALID,100,VALID,0,VALID,19.238,VALID,11,VALID,0.173177,
2007-03-01, 03:42:00,VALID,915.579,VALID,0,VALID,100,VALID,-0.0169808,VALID,19.2676,VALID,11,VALID,0.0332485,